Location: Biharia
(46.4333°N, 22.8000°E)
Time: 00:54:16
(UTC+00:00)

Meteor 1-11 - Pass Details

Date: 16 October 2021
Orbit: 841 x 887 km, 81.2° (Epoch: 02 December)

Event Time Altitude Azimuth Distance (km) Brightness Sun altitude
Rises 17:55:04 0° 347° (NNW) 3,408 7.7 -23.9°
Reaches altitude 10° 17:57:29 10° 345° (NNW) 2,470 6.9 -24.3°
Maximum altitude 18:03:02 72° 263° (W) 891 4.4 -25.2°
Enters shadow 18:06:50 21° 182° (S) 1,809 5.8 -25.9°
